RH
51 49 49 50 50 49 51 55 57 55 55 58 60 58 57 57 54 49 46 45 46 45 43 40 38 36 34 32 32 29 27 27 29 26 18 18 24 23 18 18 18 17
50 49 48 48 46 45 51 53 51 54 56 56 58 55 56 58 54 49 47 46 48 48 44 41 38 37 35 32 31 28 24 25 27 24 16 14 22 23 18 17 16 15
51 51 52 53 52 49 51 52 51 56 58 56 56 55 54 56 54 51 48 48 51 49 44 42 37 36 35 33 31 25 21 22 24 21 14 13 21 20 17 16 15 14
57 58 58 58 56 53 55 57 56 61 62 60 61 60 58 57 56 54 51 50 52 49 44 42 38 36 35 33 30 22 18 20 21 17 12 14 19 16 14 16 15 14
61 61 62 60 59 58 59 61 64 68 67 64 65 65 64 62 57 53 52 52 53 51 46 42 39 36 32 30 27 19 15 19 18 15 14 15 16 14 14 17 16 16
62 60 62 63 64 65 63 64 69 71 69 68 68 68 68 67 62 57 53 53 56 56 49 41 35 32 30 28 25 17 16 20 18 16 18 17 16 16 16 16 17 16
62 61 63 65 66 66 65 67 72 72 71 72 72 72 70 69 68 65 59 57 60 61 54 41 32 30 28 25 22 17 17 21 18 16 18 18 17 18 17 17 18 17
62 64 67 67 69 71 71 73 77 78 77 75 74 74 73 72 71 67 61 61 63 62 53 40 31 29 26 20 20 20 20 20 17 15 17 17 16 18 17 17 19 18
63 66 70 70 70 73 77 78 80 83 82 80 77 74 73 73 72 65 61 64 67 62 50 37 30 28 22 17 19 20 19 19 16 14 16 15 15 16 16 17 19 19
68 69 69 70 71 73 76 79 79 76 76 78 80 79 75 72 70 68 64 65 66 59 44 33 28 23 16 16 20 19 18 19 17 15 16 16 16 15 15 18 20 19
73 71 67 67 72 75 75 76 75 71 71 76 80 80 77 73 73 71 67 67 64 52 38 29 24 17 12 13 15 13 15 20 18 17 18 19 19 18 18 19 20 18
67 69 69 68 71 74 73 71 69 68 70 75 77 77 77 76 74 70 68 68 59 43 32 27 20 14 10 8 7 5 10 19 20 18 20 21 20 20 20 20 18 18
65 67 69 69 71 73 73 69 67 67 69 72 75 76 77 77 74 69 68 65 51 35 29 26 18 12 7 4 4 3 6 16 21 20 21 22 20 20 21 20 18 20
70 69 70 71 72 72 72 70 69 70 72 73 74 75 77 77 74 69 64 56 42 30 27 24 17 10 5 3 4 3 7 17 21 19 20 21 18 19 21 20 19 22
71 71 72 75 75 73 73 73 72 74 75 74 74 74 74 74 69 62 54 47 36 27 24 22 15 7 4 4 4 3 7 16 20 20 20 20 19 20 22 21 20 23
68 70 71 74 75 74 74 74 74 76 76 74 73 72 70 67 61 53 47 42 32 24 21 18 11 6 4 4 3 4 8 15 20 19 18 19 19 20 22 23 23 25
64 67 71 74 75 75 76 76 76 76 76 74 72 69 65 60 55 49 44 36 28 23 20 16 10 7 5 3 3 6 12 17 20 19 18 19 19 20 21 23 24 25
61 64 70 72 74 77 78 78 79 78 74 71 67 63 59 56 52 45 39 31 24 22 22 18 11 7 4 3 4 8 14 19 19 18 18 19 19 20 22 24 24 25
61 60 62 64 67 72 74 76 78 75 70 64 60 57 55 53 48 40 33 25 20 22 23 18 13 9 6 5 5 9 16 19 19 19 18 19 20 21 23 25 26 25
65 61 58 57 56 59 64 68 69 66 62 59 56 54 52 47 41 35 29 21 16 20 21 17 14 13 13 11 6 9 17 19 18 20 19 19 20 22 22 24 25 24
65 61 57 54 52 54 59 61 60 58 56 54 53 51 47 41 35 31 25 18 16 20 22 20 19 18 19 16 7 6 17 21 19 20 20 19 20 22 22 24 23 23
59 58 56 52 50 54 57 56 54 52 49 50 50 46 40 36 32 28 22 18 18 21 20 20 21 21 20 17 7 4 13 18 19 21 20 19 20 22 23 23 23 24
55 54 53 48 47 49 51 51 51 49 46 47 47 42 36 33 30 25 21 19 18 19 18 20 22 21 20 14 6 4 9 14 20 24 21 17 19 22 22 22 22 23
52 50 50 49 48 47 47 47 48 47 44 43 42 39 34 31 28 23 17 16 16 15 17 21 22 21 18 11 6 4 5 9 18 25 21 18 21 22 21 22 23 23
53 51 50 50 49 48 47 45 44 44 41 35 35 36 32 28 28 23 18 18 17 14 17 22 21 18 15 9 6 5 4 7 15 22 21 21 22 22 21 23 24 24
53 52 51 51 52 49 45 43 43 40 34 29 31 36 32 26 27 25 21 23 22 17 19 23 20 17 15 11 9 7 5 6 11 16 17 20 23 21 20 24 25 25